[[{"header":{"parameterUnit":"m.s-1","parameterCategory":1,"la1":30.2992,"la2":30.254,"lo1":-89.0895,"lo2":-89.0443,"dy":0.0025,"dx":0.0025,"nx":19,"ny":19,"refTime":"2026-05-02T09:00:00:Z","depth":0,"parameterNumber":2,"parameterNumberName":"U-component_of_WINDS"},"data":[0,0,0,-2.5512,-2.5519,-2.5819,-2.582,-2.6227,-2.6231,0,0,0,0,0,0,0,0,0,0,0,-2.5432,-2.5435,-2.5512,-2.552,-2.5819,-2.582,-2.6227,-2.6231,0,0,0,0,0,0,0,0,0,0,0,-2.543,-2.5434,-2.5437,-2.5521,-2.5818,-2.582,-2.6226,-2.5993,0,0,0,0,0,0,0,0,0,0,-2.5699,-2.563,-2.5433,-2.5438,-2.5522,-2.5818,-2.582,-2.5981,-2.6007,-2.61,0,-2.6178,0,-2.6211,-2.6259,-2.6261,0,0,0,-2.5516,-2.5608,-2.5681,-2.5438,-2.5525,-2.5818,-2.5683,-2.5996,-2.6025,-2.6135,-2.6184,-2.6198,-2.6217,-2.6262,-2.6264,-2.6797,-2.68,0,0,-2.5499,-2.5492,-2.566,-2.57,-2.5648,-2.5673,-2.5692,-2.6013,-2.6069,-2.6185,-2.6208,-2.6224,-2.6265,-2.6268,-2.6795,-2.6798,0,0,0,-2.5454,-2.548,-2.5545,-2.5684,-2.5736,-2.5682,-2.5704,-2.6055,-2.6076,-2.6212,-2.6229,-2.6267,-2.6272,-2.6792,-2.6796,-2.6921,0,0,0,-2.5444,-2.5454,-2.5538,-2.5536,-2.573,-2.5898,-2.5738,-2.6054,-2.609,-2.6227,-2.6267,-2.6277,-2.6789,-2.6794,-2.6911,-2.6985,0,0,0,-2.541,-2.545,-2.5495,-2.5535,-2.5663,-2.5892,-2.5932,-2.6062,-2.6101,-2.6261,-2.6278,-2.6787,-2.6793,-2.6903,-2.697,-2.7126,0,0,0,-2.5373,-2.5604,-2.5497,-2.5762,-2.566,-2.5964,-2.593,-2.6158,-2.631,-2.627,-2.6789,-2.6795,-2.69,-2.6961,-2.7116,-2.7259,-2.7315,0,0,-2.5661,-2.5638,-2.5795,-2.5708,-2.6029,-2.5919,-2.6262,-2.641,-2.6435,-2.6677,-2.669,-2.6915,-2.6969,-2.7124,-2.7627,-2.7672,0,0,0,-2.5885,-2.5998,-2.6084,-2.6225,-2.634,-2.6448,-2.6543,-2.6599,-2.6803,-2.6555,-2.701,-2.7043,-2.7134,-2.7204,-2.7242,-2.7324,-2.6825,-2.6824,-2.6824,-2.6287,-2.6301,-2.6563,-2.6614,-2.6752,-2.6847,-2.6964,-2.7056,-2.7033,-2.714,-2.7215,-2.7517,-2.7597,-2.7626,-2.771,-2.7286,-2.7286,-2.7287,-2.7287,-2.6716,-2.6881,-2.684,-2.708,-2.7097,-2.7302,-2.7404,-2.7381,-2.7578,-2.7462,-2.7543,-2.742,-2.7674,-2.775,-2.7297,-2.7295,-2.7294,-2.7293,-2.7292,-2.6986,-2.7068,-2.7126,-2.7332,-2.7491,-2.7536,-2.7726,-2.7734,-2.7744,-2.7824,-2.7906,-2.7904,-2.7909,-2.7861,-2.7862,-2.7863,-2.7864,-2.7864,-2.7865,-2.7245,-2.7307,-2.7463,-2.7604,-2.7696,-2.782,-2.7917,-2.8012,-2.8119,-2.811,-2.8111,-2.8082,-2.7692,-2.7598,-2.7882,-2.7879,-2.7877,-2.7875,-2.7874,-2.7685,-2.7586,-2.7828,-2.792,-2.8087,-2.8248,-2.8252,-2.8443,-2.8521,-2.8617,-2.8569,-2.8277,-2.8257,-2.8227,-2.815,-2.8559,-2.8559,-2.8559,-2.856,-2.7918,-2.7905,-2.8155,-2.8303,-2.8449,-2.8477,-2.8758,-2.8838,-2.8906,-2.8957,-2.8898,-2.8793,-2.8761,-2.8761,-2.8719,-2.8648,-2.9175,-2.9176,-2.9176,-2.8192,-2.8194,-2.8429,-2.8487,-2.8618,-2.8733,-2.8999,-2.9177,-2.9233,-2.9201,-2.8999,-2.8973,-2.8805,-2.8747,-2.8718,-2.8652,-2.8521,0,0]},{"header":{"parameterUnit":"m.s-1","parameterCategory":1,"la1":30.2992,"la2":30.254,"lo1":-89.0895,"lo2":-89.0443,"dy":0.0025,"dx":0.0025,"nx":19,"ny":19,"refTime":"2026-05-02T09:00:00:Z","depth":0,"parameterNumber":3,"parameterNumberName":"V-component_of_WINDS"},"data":[0,0,0,-6.2615,-6.2616,-6.2655,-6.2656,-6.2727,-6.2727,0,0,0,0,0,0,0,0,0,0,0,-6.2617,-6.2618,-6.2615,-6.2616,-6.2655,-6.2656,-6.2726,-6.2727,0,0,0,0,0,0,0,0,0,0,0,-6.2617,-6.2618,-6.2619,-6.2617,-6.2655,-6.2656,-6.2726,-6.2689,0,0,0,0,0,0,0,0,0,0,-6.2647,-6.2663,-6.2618,-6.2619,-6.2617,-6.2655,-6.2656,-6.2687,-6.2691,-6.2718,0,-6.2747,0,-6.2738,-6.2734,-6.2734,0,0,0,-6.2606,-6.266,-6.2658,-6.2619,-6.2617,-6.2655,-6.2635,-6.2689,-6.2694,-6.2724,-6.2747,-6.2749,-6.274,-6.2734,-6.2735,-6.2925,-6.2926,0,0,-6.2604,-6.2632,-6.2654,-6.2662,-6.2658,-6.2634,-6.2636,-6.2692,-6.2719,-6.2748,-6.2751,-6.2741,-6.2735,-6.2736,-6.2924,-6.2925,0,0,0,-6.2605,-6.2631,-6.2627,-6.2659,-6.2665,-6.2635,-6.2638,-6.2716,-6.2713,-6.2751,-6.2742,-6.2735,-6.2737,-6.2922,-6.2924,-6.3019,0,0,0,-6.2603,-6.2631,-6.2626,-6.2644,-6.2664,-6.2691,-6.2662,-6.2709,-6.2714,-6.2741,-6.2735,-6.2737,-6.2921,-6.2923,-6.3013,-6.3058,0,0,0,-6.261,-6.2632,-6.2642,-6.2645,-6.2663,-6.269,-6.2689,-6.2709,-6.2709,-6.2734,-6.2738,-6.292,-6.2923,-6.3007,-6.305,-6.3115,0,0,0,-6.2626,-6.2727,-6.2644,-6.2753,-6.2663,-6.2748,-6.2688,-6.275,-6.2783,-6.2736,-6.2921,-6.2924,-6.3006,-6.3044,-6.311,-6.3175,-6.3205,0,0,-6.2769,-6.2745,-6.2807,-6.2734,-6.2841,-6.274,-6.286,-6.2864,-6.2841,-6.2898,-6.2902,-6.3015,-6.3049,-6.3114,-6.3366,-6.339,0,0,0,-6.2861,-6.2906,-6.2928,-6.2961,-6.2966,-6.2973,-6.2956,-6.2957,-6.3004,-6.2876,-6.3056,-6.3076,-6.3112,-6.3142,-6.3163,-6.3192,-6.2939,-6.2939,-6.2939,-6.3104,-6.3068,-6.3167,-6.3135,-6.3168,-6.3148,-6.317,-6.3168,-6.3123,-6.3166,-6.3183,-6.334,-6.3375,-6.339,-6.3421,-6.3215,-6.3215,-6.3216,-6.3216,-6.3308,-6.3365,-6.3302,-6.3375,-6.3336,-6.3397,-6.3381,-6.3347,-6.3397,-6.3325,-6.3355,-6.3279,-6.3418,-6.3443,-6.3223,-6.3222,-6.3221,-6.322,-6.322,-6.3462,-6.3483,-6.3482,-6.3524,-6.356,-6.3524,-6.3575,-6.3538,-6.3504,-6.3534,-6.3546,-6.3545,-6.3537,-6.3543,-6.3544,-6.3544,-6.3545,-6.3545,-6.3545,-6.3622,-6.3617,-6.3664,-6.3677,-6.3692,-6.3707,-6.3687,-6.37,-6.3705,-6.3674,-6.3674,-6.3624,-6.3439,-6.3392,-6.3554,-6.3552,-6.3551,-6.355,-6.355,-6.384,-6.3784,-6.3857,-6.3872,-6.3882,-6.3919,-6.3872,-6.3902,-6.3908,-6.3933,-6.3877,-6.3746,-6.3719,-6.3702,-6.3663,-6.3885,-6.3885,-6.3885,-6.3885,-6.3969,-6.3952,-6.4016,-6.4042,-6.4063,-6.4026,-6.4108,-6.4093,-6.4068,-6.4069,-6.4032,-6.3977,-6.3962,-6.3944,-6.3922,-6.3885,-6.4158,-6.4159,-6.4159,-6.4101,-6.4083,-6.416,-6.4135,-6.4139,-6.4144,-6.4219,-6.425,-6.4211,-6.4169,-6.4069,-6.4057,-6.3969,-6.3942,-6.3897,-6.3864,-6.3795,0,0]}]]